Weather History for KBTM - March, 2014

Change the Weather History Date:

Tuesday, March 25, 2014

  Actual Average Record
Temperature  
Mean Temperature 40 °F 34 °F  
Max Temperature 58 °F 46 °F 66 °F (1999)
Min Temperature 22 °F 23 °F -25 °F (1955)
Degree Days  
Heating Degree Days 25 31  
Month to date heating degree days 879 863  
Since 1 July heating degree days 7257 7432  
Cooling Degree Days 0 0  
Month to date cooling degree days 0 0  
Year to date cooling degree days 0 0  
Moisture  
Dew Point 19 °F    
Average Humidity 51    
Maximum Humidity 84    
Minimum Humidity 17    
Precipitation  
Precipitation 0.00 in 0.03 in 0.32 in (1950)
Month to date precipitation 0.76 0.58  
Year to date precipitation 1.62 1.48  
Sea Level Pressure  
Sea Level Pressure 29.84 in    
Wind  
Wind Speed 4 mph (SSW)    
Max Wind Speed 21 mph    
Max Gust Speed 24 mph    
Visibility 10 miles    
Events      
T = Trace of Precipitation, MM = Missing Value Source: NWS Daily Summary

Daily Weather History Graph

Daily Weather History Graph

Search for Another Location

Airport or City:

Trip Planner

Search our weather history database for the weather conditions in past years. The results will help you decide how hot, cold, wet, or windy it might be!

Date:

Astronomy

Mar. 25, 2014 Rise Set
Actual Time 7:23 AM MDT 7:49 PM MDT
Civil Twilight 6:53 AM MDT 8:19 PM MDT
Nautical Twilight 6:18 AM MDT 8:54 PM MDT
Astronomical Twilight 5:41 AM MDT 9:31 PM MDT
Moon 4:04 AM MDT (3/25) 2:09 PM MDT (3/25)
Length of Visible Light 13h 25m
Length of Day
12h 26m
Waning Crescent, 31% of the Moon is Illuminated
Mar 25
Waning Crescent
Mar 30
New
Apr 7
First Quarter
Apr 15
Full
Apr 22
Last Quarter

Hourly Weather History & Observations

Time (MDT) Temp. Windchill Dew Point Humidity Pressure Visibility Wind Dir Wind Speed Gust Speed Precip Events Conditions
12:53 AM 28.9 °F 22.8 °F 21.0 °F 72% 30.17 in 10.0 mi SE 5.8 mph - N/A   Clear
1:53 AM 27.0 °F 21.6 °F 21.0 °F 78% 30.15 in 10.0 mi SSE 4.6 mph - N/A   Clear
2:53 AM 26.1 °F - 21.0 °F 81% 30.12 in 10.0 mi Calm Calm - N/A   Clear
3:53 AM 24.1 °F 18.2 °F 19.0 °F 81% 30.09 in 10.0 mi SSE 4.6 mph - N/A   Clear
4:53 AM 24.1 °F 19.7 °F 19.9 °F 84% 30.06 in 10.0 mi SE 3.5 mph - N/A   Clear
5:53 AM 24.1 °F 17.0 °F 19.9 °F 84% 30.05 in 10.0 mi South 5.8 mph - N/A   Clear
6:53 AM 23.0 °F - 18.0 °F 81% 30.04 in 10.0 mi Calm Calm - N/A   Clear
7:53 AM 21.9 °F 17.2 °F 18.0 °F 85% 30.04 in 10.0 mi SSE 3.5 mph - N/A   Clear
8:53 AM 25.0 °F - 19.0 °F 78% 30.02 in 10.0 mi Calm Calm - N/A   Clear
9:53 AM 28.0 °F - 19.9 °F 72% 29.99 in 10.0 mi Calm Calm - N/A   Clear
10:53 AM 34.0 °F - 21.0 °F 59% 29.94 in 10.0 mi Calm Calm - N/A   Clear
11:53 AM 41.0 °F 39.0 °F 19.0 °F 41% 29.88 in 10.0 mi NW 3.5 mph - N/A   Clear
12:53 PM 48.0 °F - 19.0 °F 32% 29.80 in 10.0 mi Variable 3.5 mph - N/A   Clear
1:53 PM 51.1 °F - 19.0 °F 28% 29.76 in 10.0 mi South 4.6 mph - N/A   Clear
2:53 PM 57.0 °F - 18.0 °F 22% 29.68 in 10.0 mi South 17.3 mph 21.9 mph N/A   Clear
3:53 PM 57.0 °F - 16.0 °F 20% 29.65 in 10.0 mi SSW 8.1 mph - N/A   Clear
4:53 PM 57.0 °F - 15.1 °F 19% 29.62 in 10.0 mi SW 5.8 mph - N/A   Clear
5:53 PM 57.0 °F - 12.9 °F 18% 29.58 in 10.0 mi WSW 6.9 mph - N/A   Mostly Cloudy
6:53 PM 53.1 °F - 16.0 °F 23% 29.58 in 10.0 mi WSW 6.9 mph - N/A   Mostly Cloudy
7:53 PM 50.0 °F - 19.9 °F 31% 29.58 in 10.0 mi WSW 9.2 mph - N/A   Mostly Cloudy
8:53 PM 45.0 °F - 21.9 °F 40% 29.58 in 10.0 mi Calm Calm - N/A   Partly Cloudy
9:53 PM 44.1 °F 39.0 °F 21.0 °F 40% 29.58 in 10.0 mi NW 9.2 mph - N/A   Mostly Cloudy
10:53 PM 44.1 °F 42.5 °F 18.0 °F 35% 29.57 in 10.0 mi North 3.5 mph - N/A   Partly Cloudy
11:53 PM 41.0 °F - 18.0 °F 40% 29.55 in 10.0 mi Calm Calm - N/A   Partly Cloudy